Location: Unspecified
(0.0000°N, 0.0000°E)
Time: 22:33:36
(UTC+00:00)

STARLINK-32354 - Visible Passes

Search period start: 14 December 2025 00:00
Search period end: 24 December 2025 00:00
Orbit: 482 x 484 km, 43.0° (Epoch: 14 December)

Date Brightness Start Highest point End Pass type
(mag) Time Alt. Az. Time Alt. Az. Time Alt. Az.
15 Dec 6.2 19:54:34 10° S 19:54:46 11° S 19:54:46 11° S visible
16 Dec 5.5 19:26:50 10° S 19:28:31 16° SSE 19:28:31 16° SSE visible
17 Dec 5.3 18:59:04 10° S 19:01:25 16° SE 19:02:17 15° ESE visible
18 Dec 5.5 18:31:16 10° S 18:33:30 15° SE 18:35:42 10° E visible
18 Dec 5.9 20:08:53 10° WSW 20:10:19 20° W 20:10:19 20° W visible
19 Dec 4.6 19:40:53 10° WSW 19:44:06 34° NW 19:44:06 34° NW visible
20 Dec 4.5 19:12:50 10° WSW 19:16:19 36° NW 19:17:52 25° N visible
21 Dec 6.0 05:21:38 10° NNE 05:23:28 13° NE 05:25:17 10° ENE visible
21 Dec 4.5 18:44:44 10° WSW 18:48:16 38° NW 18:51:36 11° NNE visible
22 Dec 6.0 04:53:45 10° NNE 04:55:23 12° NE 04:57:02 10° ENE visible
23 Dec 6.0 04:25:51 10° NNE 04:27:16 12° NE 04:28:41 10° ENE visible
